National Weather Service United States Department of Commerce
Data are updated at 11 and 26 past the hour. Coastal data is often not avaialable until 26 past the hour.
Check the Preious Version of the data HERE if data are missing.  

NYCBOYDAT LOC
TTAA00 KOKX 230328

Coastal Waters Roundup...For Informational Purposes Only
National Weather Service New York NY
1100 PM EDT FRI JUN 22 2018

...Ocean Waters...
  
...Long Island South Shore (WeatherFlow - Wind is MPH)...
  
STATION/POSITION TIME  TEMP    WIND        PRES    WAVE   WND WV SWELL
                       AIR SEA DIR/SP/G            HT/PER HT/PER HT/PER/DIR
                 (UTC) (F)     (DEG/KT/KT) (MB)    (FT/S) (FT/S) (FT/S/D)
NY Harb Entrance 0310   66 67   80/ 14/ 17 1015.4
20 S Fire Is NY  0250   66 65   90/ 16/ 19 1015.2    4/ 6   3/ 6   2/110/14
23 SSW Montauk P 0250   65 64  110/ 16/ 19 1016.3    3/ 5   3/ 5   2/150/ 7
25 SE Block IS   0313      62                N/A     3/ 4   3/ 4
15 E Barnegat NJ 0300      68                N/A     5/ 6   5/ 6
Texas Tower #4   0250   66 64   80/ 12/ 14 1013.9    5/ 6   3/ 5   3/100/ 6
Great South Bay  0300   66 74   90/ 14/ 19   N/A

CITY           SKY/WX    TMP DP  RH WIND       PRES   REMARKS
Breezy Point     N/A     63 N/A N/A E9G16       N/A                   
Jones Beach CG   N/A     63 N/A N/A E10         N/A                   
Amityville       N/A     64 N/A N/A E10         N/A                   
Boat Channel     N/A     64 N/A N/A E16         N/A                   
Fire Island CG   N/A     64 N/A N/A E12         N/A                   
Pt O Woods       N/A    N/A N/A N/A E14         N/A                   
Blue Pt          N/A     64 N/A N/A E15         N/A                   
East Moriches    N/A    N/A N/A N/A E9G15       N/A                   
Shinnecock Inl   N/A     63 N/A N/A E13         N/A                   
Mecox Bay        N/A     61 N/A N/A E7          N/A                   
Napeaque         N/A    N/A N/A N/A E12         N/A                   

...Long Island Sound...
  
STATION/POSITION TIME  TEMP    WIND        PRES    WAVE   WND WV SWELL
                       AIR SEA DIR/SP/G            HT/PER HT/PER HT/PER/DIR
                 (UTC) (F)     (DEG/KT/KT) (MB)    (FT/S) (FT/S) (FT/S/D)
Kings Point      0300      65                N/A
Execution Rocks  NOT AVBL
Western LI Sound 0300   64      80/ 14/ 17   N/A     1/ 3
Bridgeport NOS   0254   63 64   80/  6/  9 1016.5
New Haven NOS    0300   63 69  110/  4/  6 1017.5
Central LI Sound 0315   64      80/ 14/ 16   N/A     1
Ledge Light      NOT AVBL

...Long Island Sound Coastal  (WeatherFlow - Wind is MPH)...
  
CITY           SKY/WX    TMP DP  RH WIND       PRES   REMARKS
Larchmont        N/A     63 N/A N/A NE17        N/A                   
Norwalk          N/A     61 N/A N/A NE16        N/A                   
Bayville         N/A     63 N/A N/A E14         N/A                   
Eatons Neck      N/A     63 N/A N/A E9          N/A                   
Mt Sinai         N/A    N/A N/A N/A E5          N/A                   
New Haven Harb   N/A     61 N/A N/A NE3         N/A                   
Hammonasset      N/A     63 N/A N/A E5          N/A                   
USCG Academy     N/A     61 N/A N/A NE2         N/A                   
Gull Island      N/A     61 N/A N/A E12         N/A                   
Fishers Island   N/A     61 N/A N/A E10         N/A                   

...Block Island Sound (WeatherFlow - Wind is MPH)...
  
CITY           SKY/WX    TMP DP  RH WIND       PRES   REMARKS
Block Island     N/A     63 N/A N/A E12         N/A                   
Ninigret Pond    N/A     63 N/A N/A E8          N/A                   
Point Judith     N/A     63 N/A N/A SE12        N/A                   

...NY Harbor...
  
STATION/POSITION TIME  TEMP    WIND        PRES    WAVE   WND WV SWELL
                       AIR SEA DIR/SP/G            HT/PER HT/PER HT/PER/DIR
                 (UTC) (F)     (DEG/KT/KT) (MB)    (FT/S) (FT/S) (FT/S/D)
Bergen Point     0300   65 71              1016.1
Robbins Reef     0300   66     120/ 12/ 15 1016.5
Sandy Hook       0254   64 67   90/  9/ 14 1017.0

...NY Harbor (WeatherFlow - Wind is MPH)...
  
CITY           SKY/WX    TMP DP  RH WIND       PRES   REMARKS
Bayonne          N/A     63 N/A N/A SE9         N/A                   
Perth Amboy      N/A     63 N/A N/A E9G15       N/A                   
Sandy Hook       N/A    N/A N/A N/A E15         N/A                   

...New England Waters...
  
STATION/POSITION TIME  TEMP    WIND        PRES    WAVE   WND WV SWELL
                       AIR SEA DIR/SP/G            HT/PER HT/PER HT/PER/DIR
                 (UTC) (F)     (DEG/KT/KT) (MB)    (FT/S) (FT/S) (FT/S/D)
Buzzards Bay MA  0300   62     110/ 12/ 13 1018.4
Nantucket Shoals 0250   59 57              1017.2    2/ 5
Nantucket Sound  0310   62 66  110/ 12/ 16 1017.9
Boston Harbor    0250   63 62  150/  8/ 10 1017.9    1/14
Mass Bay         0204   62 60              1016.8    1/ 3
Jeffrey's Ledge  0306      61                N/A     2/13   2/ 3
Isle of Shoals   0300   62     170/ 15/ 15 1017.7
Mnt Desert Rock  0300   55     190/ 12/ 12 1018.8
Matinicus Rock M 0300   55     180/ 12/ 12 1018.2
Gulf of Maine    NOT AVBL
12 SE Portland M 0250   59 57  190/  8/  8 1017.9    1/14          2/170/14

...Southern NJ Coast...
  
STATION/POSITION TIME  TEMP    WIND        PRES    WAVE   WND WV SWELL
                       AIR SEA DIR/SP/G            HT/PER HT/PER HT/PER/DIR
                 (UTC) (F)     (DEG/KT/KT) (MB)    (FT/S) (FT/S) (FT/S/D)
Delaware Bay     0250   67 68   70/ 16/ 17 1011.7    4/ 6   5/ 6   2/110/ 8

...Mid-Atlantic and Southeast Coast... 
  
STATION/POSITION TIME  TEMP    WIND        PRES    WAVE   WND WV SWELL
                       AIR SEA DIR/SP/G            HT/PER HT/PER HT/PER/DIR
                 (UTC) (F)     (DEG/KT/KT) (MB)    (FT/S) (FT/S) (FT/S/D)
Thomas Point MD  0300   67 75   60/ 13/ 14 1012.7
Diamond Shoals N 0310   83 82  200/ 17/ 21 1011.9
Cape Lookout NC  0300          210/ 15/ 18 1011.9
Frying Pan Shls  0310   83 82  200/ 17/ 21 1012.2
Duck Pier NC     0300   83 71  190/ 13/ 17 1009.2
Folly Island SC  0300   84     230/ 11/ 13 1012.5
St Augustine FL  0300   80 79  210/  7/  8 1014.8
64 E VA Beach VA 0250   76 73  190/ 10/ 12 1010.9    4/ 6   2/ 5   3/ 30/ 6
Edisto SC        0310          210/ 16/ 17 1012.5
Grays Reef GA    0250   83 84  200/ 14/ 16 1012.8    2/ 3   2/ 3
20 E Cape Canave 0310   81 82  220/  6/  8 1015.6
South Hatteras N 0310      81  180/ 12/ 16 1014.9
Georges Bank     NOT AVBL
$$

 

Updated:  1/4/16